Regional Weather Roundup
Issued by NWS

Home | Current Version | Previous Version | Graphics & Text | Print | Product List | Glossary On
Versions: 1 2 3 4 5 6 7 8 9 10 11 12 13 14 15 16 17 18 19 20 21 22 23 24 25 26 27 28 29 30 31 32 33 34 35 36 37 38 39 40 41 42 43 44 45 46 47 48 49 50
000
ASUS43 KLOT 270808
RWRIL

ILLINOIS REGIONAL WEATHER ROUNDUP
NATIONAL WEATHER SERVICE CHICAGO/ROMEOVILLE IL
300 AM CDT WED MAY 27 2015

NOTE: "FAIR" INDICATES FEW OR NO CLOUDS BELOW 12,000 FEET WITH NO
SIGNIFICANT WEATHER AND/OR OBSTRUCTIONS TO VISIBILITY.

* THESE STATIONS ARE NOT UNDER NWS QUALITY CONTROL. THEY ALSO MAY NOT
  REPORT WEATHER SUCH AS PRECIPITATION OR FOG.

ILZ001-002-007-009-015-016-024-270900-
NORTHWEST ILLINOIS

CITY           SKY/WX    TMP DP  RH WIND       PRES   REMARKS
MOLINE         CLEAR     63  59  87 W9        29.86R
STERLING*      CLEAR     64  61  88 SW9       29.86R
SAVANNA*       CLOUDY    64  60  87 SW9       29.84R
$$

ILZ003-004-008-010-011-017-018-270900-
NORTH CENTRAL ILLINOIS

CITY           SKY/WX    TMP DP  RH WIND       PRES   REMARKS
ROCKFORD       MOCLDY    62  60  93 S7        29.85R
FREEPORT*      PTCLDY    60  59  96 SW7       29.85R
ROCHELLE*      PTCLDY    63  61  94 SW14      29.86R
DE KALB*       MOCLDY    61  59  95 SW8       29.86R
PERU*          CLEAR     65  61  86 SW10      29.88R
$$

ILZ005-006-012>014-019>023-270900-
NORTHEAST ILLINOIS

CITY           SKY/WX    TMP DP  RH WIND       PRES   REMARKS
CHICAGO-OHARE  PTCLDY    65  61  87 SW8       29.83S
CHICAGO-MIDWAY PTCLDY    68  62  81 SW15G22   29.84S
AURORA         PTCLDY    66  60  81 SW12      29.86R
LANSING*       CLEAR     67  59  75 SW17      29.87S
JOLIET*        PTCLDY    67  64  90 SW7       29.87R
WAUKEGAN       MOCLDY    64  62  93 SW8       29.81S
DUPAGE AIRPORT PTCLDY    65  61  87 SW15      29.84S
KANKAKEE*      CLEAR     65  61  87 SW16      29.90S
WHEELING       PTCLDY    65  62  90 SW7       29.84S
MORRIS*        PTCLDY    65  62  89 SW10      29.86R
ROMEOVILLE*    PTCLDY    65  61  86 SW14      29.86S
NORTHERLY ISL    N/A     67  60  78 S7          N/A
$$

LMZ740>746-270900-
SOUTHERN LAKE MICHIGAN

STATION/POSITION SKY/WX   TEMP    WIND        PRES    VSBY  WAVE
                          AIR SEA DIR/SP/G                  HT/PER
                          (F)     (DEG/KT/KT) (MB)    (MI)  (FT/S)
SOUTHERN BUOY              45 38  190/ 10/ 10 1010.2R
HARRISON CRIB              68     210/ 24/ 29   N/A
BURNHAM HARBOR             67     170/  6/ 13   N/A
CALUMET HARBOR                    210/ 10/ 15   N/A
BURNS HARBOR               69     210/ 22     1011.9S
MICHIGAN CITY              69     170/ 16/ 19   N/A
MICHIGAN CITY 6N           63 52  220/ 14/ 19   N/A           2/ 3
ST. JOSEPH                 63 55  240/ 16/ 19   N/A           3/ 4
$$

ILZ025>027-034>036-040-047-049-050-058-095>099-270900-
WEST-CENTRAL ILLINOIS

CITY           SKY/WX    TMP DP  RH WIND       PRES   REMARKS
QUINCY         MOCLDY    65  62  90 SW6       29.92S
GALESBURG*     CLEAR     62  60  92 SW7       29.91R
MACOMB*        PTCLDY    65  62  89 SW7       29.93S
JACKSONVILLE*  MOCLDY    69  64  83 SW9       29.94R
PITTSFIELD*    TSTM      68  60  77 W12G21    29.96R
$$

ILZ028>032-037-038-041>044-048-051>054-059>061-270900-
CENTRAL ILLINOIS

CITY           SKY/WX    TMP DP  RH WIND       PRES   REMARKS
PONTIAC        PTCLDY    68  64  85 SW15      29.90S
BLOOMINGTON    TSTM      66  63  90 SW22G38   29.94R FOG
DECATUR        CLEAR     67  61  81 SW14      29.96R
PEORIA         CLOUDY    69  62  78 SW7       29.91R
LACON*         PTCLDY    64  62  91 SW5       29.89R
LINCOLN*       PTCLDY    69  62  79 S6        29.91S
SPRINGFIELD    LGT RAIN  68  63  84 S14       29.94R
TAYLORVILLE    CLEAR     64  61  88 S10       29.97R
$$

ILZ033-039-045-046-055>057-062-063-270900-
EAST-CENTRAL ILLINOIS

CITY           SKY/WX    TMP DP  RH WIND       PRES   REMARKS
CHAMPAIGN      CLEAR     65  60  84 S12       29.95S
DANVILLE*      CLEAR     65  60  86 SW13      29.93R
RANTOUL*       PTCLDY    68  62  80 SW13G20   29.94R
MATTOON        CLEAR     66  62  87 S9        29.97R
PARIS*         CLEAR     66  62  86 SW13      29.98R
$$

ILZ079-100>102-270900-
SOUTHWEST ILLINOIS

CITY           SKY/WX    TMP DP  RH WIND       PRES   REMARKS
ALTON          CLEAR     66  66 100 S9        29.99R
BELLEVILLE     CLEAR     66  65  97 S6        29.99R
CAHOKIA*       PTCLDY    64  60  87 CALM      29.99R
SPARTA*        PTCLDY    67  64  90 SW9       30.03R
$$

ILZ064>066-069>071-074>076-080>082-084>086-088>090-092>094-270900-
SOUTH-CENTRAL ILLINOIS

CITY           SKY/WX    TMP DP  RH WIND       PRES   REMARKS
CARBONDALE     CLEAR     66  62  87 SW5       30.03R
CAIRO*         CLEAR     65  63  93 SW3       30.06R
EFFINGHAM*     CLEAR     65  61  86 S6        30.01R
MARION         CLEAR     66  63  88 SW5       30.04R
MT. VERNON     CLEAR     64  61  88 S7        30.03R
CENTRALIA*     CLEAR     65  62  87 SW10      30.02R
SALEM*         CLEAR     68  64  84 S12G17    30.01R
METROPOLIS*    CLEAR     65  64  99 CALM      30.04S
$$

ILZ067-068-072-073-078-083-087-091-270900-
SOUTHEAST ILLINOIS

CITY           SKY/WX    TMP DP  RH WIND       PRES   REMARKS
LAWRENCEVILLE  CLEAR     65  61  87 SW7       30.02R
FLORA*         CLEAR     65  62  88 SW9       30.01R
FAIRFIELD*     CLEAR     66  63  89 SW8       30.01S
HARRISBURG*    CLEAR     64  63  96 SW5       30.04R
ROBINSON*      CLEAR     66  62  86 S8        30.01R
CARMI*         CLEAR     63  57  82 SW5       30.03R
$$

ABBREVIATIONS USED IN REMARKS
   TC - TEMPERATURE IN CELSIUS
  WCI - WIND CHILL INDEX
   HX - HEAT INDEX
  VSB - VISIBILITY
$$



USA.gov is the U.S. government's official web portal to all federal, state and local government web resources and services.